www.pogodaiklimat.ru

Погода и климат >> Архив погоды >> Австралия >> Weipa Aero


ПОГОДА в Weipa Aero

  • Прогноз погоды в Weipa Aero
  • Монитор погоды в Weipa Aero
  • Климат города

АРХИВ ПОГОДЫ в Weipa Aero

Время (UTC), дата Ветер
(напр.,м/с)
 
Видим.   Явления Облачность Т
(С)
Тd
(С)
f
(%)
Тe
(С)
Тes
(С)
Комфортность P
(гПа)
Po
(гПа)
Тmin
(С)
Tmax
(С)
R
(мм)
R24
(мм)
S
(см)
02 19.02 З 4 н/о 4/4 600 м
[]
+30.7 +23.9 67 +42 +52 опасность
перегрева
1009.0 1006.9 +25.3
03 19.02 З 4 н/о н/о +31.7 +24.3 65 +44 +44 опасность
перегрева
1008.1 1006.0
05 19.02 З 4 н/о н/о +31.9 +23.4 61 +43 +43 опасность
перегрева
1006.4 1004.3
06 19.02 З 5 н/о н/о +31.2 +23.6 64 +42 +42 опасность
перегрева
1005.6 1003.5
08 19.02 СЗ 4 н/о н/о +30.4 +24.5 71 +43 +43 опасность
перегрева
1006.1 1004.0
09 19.02 З 3 н/о н/о +29.6 +23.8 71 +41 +41 опасность
перегрева
1007.1 1005.0
11 19.02 С 1 н/о 3/3 600 м
[]
+28.9 +24.0 75 +40 +40 очень
душно
1008.4 1006.3
12 19.02 СЗ 4 н/о н/о +25.6 +23.8 90 +35 +35 очень
душно
1009.0 1006.9
14 19.02 штиль 0 н/о {туман} 6/0
[]
+26.2 +23.7 86 +36 +36 очень
душно
1009.0 1006.9 +32.5
15 19.02 З 2 н/о н/о +25.9 +23.9 89 +36 +36 очень
душно
1008.1 1006.0
17 19.02 штиль 0 н/о {туман} н/о +25.9 +24.3 91 +36 +36 очень
душно
1007.1 1005.0
18 19.02 штиль 0 н/о н/о +25.5 +23.9 91 +35 +35 очень
душно
1007.0 1004.9
20 19.02 В 2 н/о {туман} н/о +25.3 +24.1 93 +35 +35 очень
душно
1007.9 1005.8
21 19.02 В 2 н/о н/о +25.2 +24.0 93 +35 +35 очень
душно
1008.6 1006.5
23 19.02 штиль 0 н/о {туман} 10/10 600 м
[]
+28.8 +25.0 80 +42 +42 опасность
перегрева
1009.6 1007.5
00 20.02 СЗ 3 н/о н/о +30.3 +24.7 72 +43 +43 опасность
перегрева
1009.6 1007.5
02 20.02 З 5 н/о {туман} 10/10 600 м
[]
+30.7 +25.3 73 +45 +45 опасность
перегрева
1008.5 1006.4 +25.1
03 20.02 СЗ 5 н/о н/о +31.3 +24.2 66 +43 +43 опасность
перегрева
1007.6 1005.5
05 20.02 З 6 н/о {туман} 3/3 600 м
[]
+31.0 +22.6 61 +41 +45 опасность
перегрева
1006.1 1004.0
06 20.02 З 5 н/о н/о +31.5 +23.9 64 +43 +43 опасность
перегрева
1005.3 1003.2
08 20.02 З 6 н/о 3/3 600 м
[]
+29.9 +24.3 72 +42 +42 опасность
перегрева
1005.6 1003.5
09 20.02 З 4 н/о н/о +29.2 +23.9 73 +40 +40 очень
душно
1006.2 1004.1
11 20.02 З 2 н/о 6/0
[]
+28.0 +23.6 77 +38 +38 очень
душно
1006.8 1004.7
12 20.02 СЗ 2 н/о н/о +27.7 +23.7 79 +38 +38 очень
душно
1006.7 1004.6
14 20.02 штиль 0 н/о н/о +27.0 +24.5 86 +38 +38 очень
душно
1006.8 1004.7 +32.5
15 20.02 С 2 н/о н/о +26.5 +24.3 88 +37 +37 очень
душно
1006.1 1004.0
17 20.02 В 1 н/о 10/10 600 м
[]
+26.3 +24.0 87 +36 +36 очень
душно
1005.3 1003.2
18 20.02 В 2 н/о н/о +26.2 +24.2 89 +36 +36 очень
душно
1005.1 1003.0
20 20.02 штиль 0 н/о 10/10 600 м
[]
+26.5 +24.7 90 +38 +38 очень
душно
1006.1 1004.0
21 20.02 СЗ 1 н/о н/о +26.5 +24.9 91 +38 +38 очень
душно
1006.6 1004.5
23 20.02 СЗ 4 н/о 10/0
[]
+30.5 +25.1 73 +44 +47 опасность
перегрева
1007.0 1004.9
00 21.02 С 5 н/о н/о +30.7 +25.1 72 +44 +44 опасность
перегрева
1007.0 1004.9
02 21.02 ЮЗ 2 н/о ливневой дождь {туман} 8/8 300 м
[]
+28.3 +25.5 85 +42 +46 опасность
перегрева
1006.3 1004.2 +26.0
03 21.02 С 4 н/о н/о +28.5 +23.2 73 +38 +38 очень
душно
1005.4 1003.3
05 21.02 СЗ 7 н/о {туман} н/о +31.9 +23.7 62 +43 +43 опасность
перегрева
1003.7 1001.6
06 21.02 СЗ 6 н/о н/о +31.4 +24.3 66 +44 +44 опасность
перегрева
1003.3 1001.2
08 21.02 З 4 н/о 10/0
[]
+30.6 +24.5 70 +43 +43 опасность
перегрева
1004.4 1002.3
09 21.02 СЗ 3 н/о н/о +29.2 +24.5 76 +41 +41 опасность
перегрева
1004.7 1002.6
11 21.02 штиль 0 9000 м н/о +26.7 +23.8 84 +37 +37 очень
душно
1004.7 1002.6
12 21.02 СВ 2 н/о н/о +27.1 +24.4 85 +38 +38 очень
душно
1005.8 1003.7
14 21.02 С 1 7000 м 10/0
[]
+25.7 +23.9 90 +35 +35 очень
душно
1006.1 1004.0 +32.4
15 21.02 СВ 3 н/о н/о +25.7 +24.3 92 +36 +36 очень
душно
1005.7 1003.6
17 21.02 В 2 н/о 10/0
[]
+25.8 +24.2 91 +36 +36 очень
душно
1004.3 1002.2
18 21.02 С 2 н/о н/о +25.7 +24.3 92 +36 +36 очень
душно
1004.2 1002.1
20 21.02 СВ 2 н/о 9/0
[]
+26.0 +24.2 90 +36 +36 очень
душно
1004.6 1002.5
21 21.02 СВ 1 н/о н/о +26.0 +24.4 91 +36 +36 очень
душно
1005.1 1003.0
23 21.02 СЗ 4 н/о н/о +29.5 +25.0 77 +43 +43 опасность
перегрева
1007.1 1005.0
00 22.02 СЗ 5 н/о н/о +30.9 +23.8 66 +42 +42 опасность
перегрева
1007.3 1005.2
02 22.02 СЗ 5 н/о 4/4 600 м
[]
+31.6 +25.0 68 +45 +52 опасность
перегрева
1006.6 1004.5 +25.5
03 22.02 З 6 н/о н/о +31.3 +24.2 66 +43 +43 опасность
перегрева
1005.7 1003.6
05 22.02 З 4 н/о 8/8 600 м
[]
+31.4 +24.8 68 +45 +46 опасность
перегрева
1004.5 1002.4
06 22.02 З 6 н/о н/о +31.4 +24.8 68 +45 +45 опасность
перегрева
1003.6 1001.5
08 22.02 СЗ 4 н/о ливневой дождь {туман} 10/0
[]
+24.8 +23.2 91 +33 +33 очень
душно
1005.2 1003.1
09 22.02 С 3 н/о н/о +24.6 +23.0 91 +33 +33 очень
душно
1005.5 1003.4
11 22.02 С 3 н/о слабый дождь {туман} 10/0
[]
+24.8 +22.7 88 +33 +33 очень
душно
1005.4 1003.3
12 22.02 С 3 н/о н/о +24.6 +23.0 91 +33 +33 очень
душно
1005.9 1003.8
14 22.02 С 2 н/о 10/0
[]
+24.5 +22.9 91 +32 +32 очень
душно
1006.3 1004.2 +32.4
15 22.02 СВ 2 н/о н/о +24.7 +23.3 92 +33 +33 очень
душно
1005.9 1003.8
17 22.02 СВ 1 н/о 8/0
[]
+24.8 +23.4 92 +33 +33 очень
душно
1005.0 1002.9
18 22.02 СВ 2 н/о н/о +24.6 +23.4 93 +33 +33 очень
душно
1005.3 1003.2
20 22.02 СВ 3 н/о {туман} 10/0
[]
+24.8 +23.6 93 +34 +34 очень
душно
1005.7 1003.6
21 22.02 СВ 3 н/о н/о +25.1 +23.9 93 +34 +34 очень
душно
1006.1 1004.0
23 22.02 С 4 н/о {туман} 8/8 600 м
[]
+28.2 +25.0 83 +41 +42 опасность
перегрева
1007.8 1005.7
00 23.02 С 6 н/о н/о +30.2 +25.3 75 +44 +44 опасность
перегрева
1007.6 1005.5
02 23.02 СВ 3 н/о ливневой дождь {туман} 10/10 600 м
[]
+28.9 +25.3 81 +42 +42 опасность
перегрева
1006.6 1004.5 +24.3
03 23.02 С 5 н/о н/о +30.8 +24.7 70 +44 +44 опасность
перегрева
1005.5 1003.4
05 23.02 СЗ 8 н/о ливневой дождь {туман} 9/9 600 м
[]
+29.5 +23.4 70 +40 +40 очень
душно
1005.2 1003.1
06 23.02 СЗ 7 н/о н/о +31.3 +24.4 67 +44 +44 опасность
перегрева
1005.0 1002.9
08 23.02 З 4 н/о ливневой дождь {туман} 10/10 1000 м
[]
+26.3 +23.4 84 +36 +36 очень
душно
1006.1 1004.0
09 23.02 В 2 н/о н/о +26.2 +24.2 89 +36 +36 очень
душно
1006.8 1004.7
11 23.02 ЮВ 2 н/о {туман} 10/10 600 м
[]
+25.7 +23.6 88 +35 +35 очень
душно
1007.5 1005.4
12 23.02 СВ 3 н/о н/о +25.5 +23.7 90 +35 +35 очень
душно
1007.2 1005.1
14 23.02 В 3 н/о н/о +25.2 +23.8 92 +34 +34 очень
душно
1006.7 1004.6 +32.3
15 23.02 В 3 н/о н/о +24.9 +23.5 92 +34 +34 очень
душно
1006.8 1004.7
17 23.02 В 3 н/о 6/6 600 м
[]
+24.6 +23.4 93 +33 +33 очень
душно
1006.7 1004.6
18 23.02 СВ 3 н/о н/о +24.8 +23.6 93 +34 +34 очень
душно
1006.2 1004.1
20 23.02 СВ 4 н/о н/о +25.0 +24.0 94 +34 +34 очень
душно
1006.9 1004.8
21 23.02 СВ 3 н/о н/о +24.9 +23.9 94 +34 +34 очень
душно
1007.4 1005.3
23 23.02 СВ 4 н/о 1/1 100 м
[]
+27.5 +24.9 86 +39 +45 очень
душно
1008.4 1006.3
00 24.02 СВ 3 н/о н/о +29.9 +25.9 79 +45 +45 опасность
перегрева
1008.6 1006.5
02 24.02 З 3 н/о ливневой дождь {туман} 10/10 600 м
[]
+29.3 +24.8 77 +42 +42 опасность
перегрева
1008.2 1006.1 +24.5
03 24.02 штиль 0 н/о н/о +29.7 +25.0 76 +43 +43 опасность
перегрева
1007.7 1005.6
05 24.02 З 6 н/о в посл. час дождь со снегом {туман} 10/10 600 м
[]
+30.9 +25.7 74 +46 +46 опасность
перегрева
1006.4 1004.3
06 24.02 ЮВ 3 н/о н/о +28.6 +25.0 81 +41 +41 опасность
перегрева
1006.6 1004.5
08 24.02 З 4 н/о {туман} 8/8 1500 м
[]
+28.7 +24.9 80 +41 +41 опасность
перегрева
1006.7 1004.6
09 24.02 СЗ 2 н/о н/о +28.3 +25.1 83 +41 +41 опасность
перегрева
1007.6 1005.5
11 24.02 СВ 3 н/о {туман} 5/5 600 м
[]
+27.4 +25.0 87 +39 +39 очень
душно
1008.3 1006.2
12 24.02 СВ 3 н/о н/о +26.8 +25.0 90 +39 +39 очень
душно
1008.8 1006.7
14 24.02 В 2 н/о 10/10 300 м
[]
+26.3 +24.5 90 +37 +37 очень
душно
1009.2 1007.1 +31.8
15 24.02 СВ 2 н/о н/о +26.3 +24.5 90 +37 +37 очень
душно
1008.6 1006.5
17 24.02 В 3 н/о н/о +25.6 +24.4 93 +36 +36 очень
душно
1007.3 1005.2
18 24.02 штиль 0 н/о н/о +25.4 +24.2 93 +35 +35 очень
душно
1007.1 1005.0
20 24.02 В 2 н/о н/о +25.1 +24.1 94 +35 +35 очень
душно
1007.7 1005.6
21 24.02 СВ 3 н/о н/о +25.3 +24.3 94 +35 +35 очень
душно
1008.5 1006.4
23 24.02 СВ 3 н/о 6/6 1500 м
[]
+27.9 +25.1 85 +40 +43 очень
душно
1009.2 1007.1
00 25.02 С 3 н/о н/о +29.7 +25.2 77 +43 +43 опасность
перегрева
1008.9 1006.8
02 25.02 СЗ 5 н/о 10/10 600 м
[]
+30.8 +24.4 69 +43 +43 опасность
перегрева
1008.1 1006.0 +25.1
03 25.02 СЗ 7 н/о н/о +31.3 +24.2 66 +43 +43 опасность
перегрева
1007.0 1004.9
05 25.02 З 5 н/о {туман} 8/0 2000 м
[]
+30.2 +24.6 72 +43 +48 опасность
перегрева
1005.9 1003.8
06 25.02 СЗ 7 н/о н/о +30.4 +24.1 69 +42 +42 опасность
перегрева
1005.2 1003.1
08 25.02 СЗ 5 н/о 3/3 300 м
[]
+29.2 +24.3 75 +41 +41 опасность
перегрева
1005.6 1003.5
09 25.02 СЗ 3 н/о н/о +28.5 +24.9 81 +41 +41 опасность
перегрева
1007.0 1004.9
11 25.02 С 2 н/о н/о +27.4 +24.8 86 +39 +39 очень
душно
1007.9 1005.8
12 25.02 штиль 0 н/о н/о +27.4 +25.0 87 +39 +39 очень
душно
1008.5 1006.4
14 25.02 штиль 0 н/о 8/8 600 м
[]
+26.8 +25.0 90 +39 +39 очень
душно
1007.7 1005.6 +32.2
15 25.02 В 3 н/о н/о +26.4 +25.0 92 +38 +38 очень
душно
1006.9 1004.8
17 25.02 СВ 3 н/о 1/0
[]
+26.1 +24.7 92 +37 +37 очень
душно
1005.9 1003.8
18 25.02 СВ 1 н/о н/о +25.9 +24.7 93 +37 +37 очень
душно
1006.1 1004.0
20 25.02 В 2 н/о н/о +25.5 +24.5 94 +36 +36 очень
душно
1007.2 1005.1
21 25.02 СВ 3 н/о н/о +25.6 +24.6 94 +36 +36 очень
душно
1008.0 1005.9
23 25.02 С 3 н/о н/о +28.4 +25.0 82 +41 +41 опасность
перегрева
1009.2 1007.1

 

Местоположение метеостанции Weipa Aero (Квинсленд, Австралия): широта -12.68 долгота 141.91 высота над уровнем моря 19 м.

В архиве по умолчанию представлена погода в Weipa Aero за последнюю неделю. Архивные данные за месяц целиком и за предыдущие месяцы, начиная с января 2011 года, Вы можете получить, выбрав интересующий диапазон дат из раскрывающегося списка и нажав кнопку "Ввод!".

Внимание! Время в таблицах - всемирное. Для получения местного времени необходимо прибавить поправку, которая в Weipa Aero равна 10 ч.

Смотрите также архив погоды в соседних городах и на ближайших метеорологических станциях:

Погода в Scherger Raaf (Квинсленд, Австралия) (21 км)
Погода в Lockhart River Airport (Квинсленд, Австралия) (151 км)
Погода в Coen Airport (Квинсленд, Австралия) (179 км)
Погода в Horn Island (Квинсленд, Австралия) (237 км)
Погода в Kowanyama Airport (Квинсленд, Австралия) (312 км)
Погода в Coconut Island (Квинсленд, Австралия) (319 км)
Погода в Palmerville (Квинсленд, Австралия) (436 км)
Погода в Cape Flattery (Квинсленд, Австралия) (448 км)
Погода в Cooktown Airport (Квинсленд, Австралия) (468 км)
Погода в Merauke (Индонезия) (497 км)

Пояснения к столбцам:

Ветер - указаны скорость ветра в м/с - средняя за 10 мин, порывы в срок и между сроками (в фигурных скобках) и направление, откуда дует ветер: С - северный, СВ - северо-восточный, В - восточный, ЮВ - юго-восточный, Ю - южный, ЮЗ - юго-западный, З - западный, СЗ - северо-западный.
Видимость - горизонтальная дальность видимости в метрах или километрах. При видимости от 1 до 10 км при отсутствии осадков обычно наблюдается дымка, при ухудшении видимости до 1 км и менее - туман. В сухую погоду видимость может ухудшаться дымом, пылью или мглою.
Явления - указаны атмосферные явления, наблюдавшиеся в срок или в последний час перед сроком; фигурными скобками обозначены явления, наблюдавшиеся между сроками (за 1-3 часа до срока); квадратными скобками обозначены град или гололедные отложения с указанием их диаметра в мм.
Облачность - указаны через наклонную черту общая и нижняя облачность в баллах и высота нижней границы облаков в метрах; квадратными скобками обозначены формы облаков: Ci - перистые, Cs - перисто-слоистые, Cc - перисто-кучевые, Ac - высококучевые, As - высокослоистые, Sc - слоисто-кучевые, Ns - слоисто-дождевые, Cu - кучевые, Cb - кучево-дождевые. Подробнее классификацию облаков см. в Атласе облаков (PDF).
T - Температура воздуха - температура, измеренная на высоте 2 м над землей.
Td - Температура точки росы - температура, при понижении до которой содержащийся в воздухе водяной пар достигнет насыщения.
f - Относительная влажность воздуха - влажноcть воздуха, измеренная на высоте 2 м над землей.
Te - Эффективная температура - температура, которую ощущает одетый по сезону человек в тени. Характеристика душности погоды. При расчете учитывается влияние влажности воздуха и скорости ветра на теплоощущения человека.
Tes - Эффективная температура на солнце - температура, которую ощущает человек, с поправкой на солнечный нагрев. Характеристика знойности погоды. Зависит от высоты солнца над горизонтом, облачности и скорости ветра. Ночью, в пасмурную погоду, а также при ветре 12 м/с и более поправка равна нулю.
P - Атмосферное давление - приведенное к уровню моря атмосферное давление.
Po - Атмосферное давление - измеренное на уровне метеостанции атмосферное давление.
Tmin - Минимальная температура - минимум температуры воздуха на высоте 2 м над землей.
Tmax - Максимальная температура - максимум температуры воздуха на высоте 2 м над землей.
R - Количество осадков - Количество выпавших осадков за период времени, мм. При наведении курсора мыши на число - период времени, за который выпало указанное количество осадков.
R24 - Количество осадков - Количество выпавших осадков за 24 часа, мм.
S - Снежный покров - Высота снежного покрова, см. При наведении курсора мыши на число - состояние снежного покрова и степень покрытия местности в баллах.